When you browse on this site, cookies collect data to enhance your experience and personalize the content and advertising you see.
Visit our Privacy Policy to learn more. By continuing to use the site, you agree to this use of cookies and data.
EN

Hourly Weather Asadabad

Today, 7 July, Tuesday

Time Temperature Precipitation Wind Pressure Humidity
00:00 +26°C° 0.1 mm 2 mps 654 mmHg 56%
01:00 +26°C° 0.1 mm 2 mps 654 mmHg 56%
02:00 +26°C° 0.1 mm 2 mps 654 mmHg 56%
03:00 +26°C° 0.2 mm 2 mps 654 mmHg 56%
04:00 +25°C° 0.2 mm 2 mps 654 mmHg 56%
05:00 +25°C° 0.2 mm 2 mps 654 mmHg 56%
06:00 +27°C° 0.2 mm 1 mps 655 mmHg 52%
07:00 +28°C° 0.2 mm 1 mps 656 mmHg 48%
08:00 +29°C° 0.2 mm 1 mps 656 mmHg 43%
09:00 +30°C° 0.1 mm 1 mps 656 mmHg 40%
10:00 +31°C° 0.1 mm 2 mps 657 mmHg 37%
11:00 +32°C° 0.1 mm 2 mps 657 mmHg 33%
12:00 +34°C° 0.1 mm 2 mps 657 mmHg 32%
13:00 +35°C° 0.1 mm 2 mps 657 mmHg 30%
14:00 +35°C° 0.1 mm 2 mps 656 mmHg 28%
15:00 +35°C° 0.1 mm 2 mps 656 mmHg 27%
16:00 +35°C° 0.1 mm 2 mps 656 mmHg 27%
17:00 +35°C° 0.1 mm 1 mps 656 mmHg 26%
18:00 +33°C° 0.1 mm 1 mps 656 mmHg 31%
19:00 +32°C° 0.1 mm 1 mps 656 mmHg 36%
20:00 +31°C° 0.1 mm 1 mps 656 mmHg 41%
21:00 +29°C° 0.2 mm 2 mps 656 mmHg 44%
22:00 +27°C° 0.2 mm 3 mps 656 mmHg 47%
23:00 +25°C° 0.2 mm 4 mps 656 mmHg 50%

Tomorrow, 8 July, Wednesday

Time Temperature Precipitation Wind Pressure Humidity
00:00 +26°C° 0 mm 4 mps 656 mmHg 48%
01:00 +26°C° 0 mm 3 mps 656 mmHg 47%
02:00 +26°C° 0 mm 3 mps 656 mmHg 45%
03:00 +26°C° 0.1 mm 2 mps 656 mmHg 45%
04:00 +26°C° 0.1 mm 2 mps 656 mmHg 44%
05:00 +25°C° 0.1 mm 2 mps 656 mmHg 44%
06:00 +27°C° 0 mm 2 mps 656 mmHg 40%
07:00 +29°C° 0 mm 1 mps 657 mmHg 35%
08:00 +31°C° 0 mm 1 mps 657 mmHg 30%
09:00 +32°C° 0 mm 1 mps 657 mmHg 29%
10:00 +34°C° 0 mm 2 mps 657 mmHg 28%
11:00 +35°C° 0 mm 2 mps 657 mmHg 27%
12:00 +36°C° 0 mm 2 mps 657 mmHg 27%
13:00 +36°C° 0 mm 2 mps 657 mmHg 26%
14:00 +37°C° 0 mm 3 mps 656 mmHg 25%
15:00 +37°C° 0 mm 3 mps 656 mmHg 25%
16:00 +37°C° 0 mm 2 mps 656 mmHg 25%
17:00 +37°C° 0 mm 2 mps 656 mmHg 24%
18:00 +36°C° 0 mm 2 mps 656 mmHg 29%
19:00 +33°C° 0 mm 1 mps 656 mmHg 34%
20:00 +32°C° 0 mm 1 mps 656 mmHg 39%
21:00 +30°C° 0.1 mm 2 mps 655 mmHg 41%
22:00 +29°C° 0.1 mm 3 mps 655 mmHg 44%
23:00 +28°C° 0.1 mm 4 mps 655 mmHg 46%

Day after tomorrow, 9 July, Thursday

Time Temperature Precipitation Wind Pressure Humidity
00:00 +28°C° 0 mm 4 mps 655 mmHg 46%
01:00 +27°C° 0 mm 3 mps 654 mmHg 46%
02:00 +27°C° 0 mm 2 mps 654 mmHg 45%
03:00 +27°C° 0.1 mm 2 mps 654 mmHg 45%
04:00 +27°C° 0.1 mm 2 mps 654 mmHg 45%
05:00 +27°C° 0.1 mm 2 mps 654 mmHg 45%
06:00 +28°C° 0 mm 2 mps 654 mmHg 41%
07:00 +30°C° 0 mm 1 mps 654 mmHg 37%
08:00 +31°C° 0 mm 1 mps 655 mmHg 33%
09:00 +32°C° 0 mm 1 mps 655 mmHg 32%
10:00 +34°C° 0 mm 2 mps 655 mmHg 31%
11:00 +35°C° 0 mm 2 mps 655 mmHg 29%
12:00 +36°C° 0 mm 2 mps 654 mmHg 28%
13:00 +37°C° 0 mm 3 mps 654 mmHg 27%
14:00 +38°C° 0 mm 3 mps 654 mmHg 26%
15:00 +36°C° 0.4 mm 3 mps 653 mmHg 32%
16:00 +34°C° 0.4 mm 3 mps 652 mmHg 37%
17:00 +33°C° 0.4 mm 3 mps 652 mmHg 43%
18:00 +31°C° 0.2 mm 3 mps 652 mmHg 46%
19:00 +30°C° 0.2 mm 3 mps 652 mmHg 49%
20:00 +29°C° 0.2 mm 2 mps 652 mmHg 52%
21:00 +29°C° 0 mm 2 mps 652 mmHg 50%
22:00 +29°C° 0 mm 2 mps 652 mmHg 48%
23:00 +29°C° 0 mm 2 mps 652 mmHg 45%

10 July, Friday

Time Temperature Precipitation Wind Pressure Humidity
00:00 +28°C° 0 mm 2 mps 652 mmHg 44%
01:00 +28°C° 0 mm 3 mps 652 mmHg 43%
02:00 +28°C° 0 mm 3 mps 651 mmHg 41%
03:00 +27°C° 0 mm 3 mps 651 mmHg 41%
04:00 +27°C° 0 mm 3 mps 651 mmHg 40%
05:00 +26°C° 0 mm 3 mps 651 mmHg 39%
06:00 +28°C° 0 mm 2 mps 651 mmHg 35%
07:00 +29°C° 0 mm 2 mps 652 mmHg 31%
08:00 +31°C° 0 mm 2 mps 653 mmHg 27%
09:00 +32°C° 0 mm 2 mps 653 mmHg 24%
10:00 +34°C° 0 mm 1 mps 653 mmHg 22%
11:00 +35°C° 0 mm 1 mps 653 mmHg 19%
12:00 +37°C° 0 mm 2 mps 653 mmHg 19%
13:00 +37°C° 0 mm 2 mps 652 mmHg 18%
14:00 +38°C° 0 mm 2 mps 652 mmHg 17%
15:00 +38°C° 0 mm 2 mps 652 mmHg 17%
16:00 +38°C° 0 mm 2 mps 652 mmHg 17%
17:00 +38°C° 0 mm 2 mps 652 mmHg 16%
18:00 +36°C° 0 mm 2 mps 651 mmHg 21%
19:00 +34°C° 0 mm 1 mps 651 mmHg 26%
20:00 +30°C° 0 mm 0 mps 651 mmHg 30%
21:00 +31°C° 0 mm 1 mps 651 mmHg 30%
22:00 +31°C° 0 mm 1 mps 651 mmHg 30%
23:00 +30°C° 0 mm 1 mps 652 mmHg 29%

11 July, Saturday

Time Temperature Precipitation Wind Pressure Humidity
00:00 +29°C° 0 mm 2 mps 651 mmHg 30%
01:00 +29°C° 0 mm 2 mps 651 mmHg 30%
02:00 +28°C° 0 mm 3 mps 650 mmHg 30%
03:00 +28°C° 0 mm 3 mps 650 mmHg 30%
04:00 +27°C° 0 mm 2 mps 650 mmHg 31%
05:00 +26°C° 0 mm 2 mps 650 mmHg 31%
06:00 +28°C° 0 mm 2 mps 651 mmHg 29%
07:00 +30°C° 0 mm 1 mps 651 mmHg 26%
08:00 +31°C° 0 mm 1 mps 652 mmHg 24%
09:00 +32°C° 0 mm 1 mps 652 mmHg 23%
10:00 +34°C° 0 mm 2 mps 652 mmHg 22%
11:00 +35°C° 0 mm 3 mps 652 mmHg 21%
12:00 +36°C° 0 mm 3 mps 652 mmHg 19%
13:00 +36°C° 0 mm 3 mps 652 mmHg 18%
14:00 +37°C° 0 mm 3 mps 652 mmHg 16%
15:00 +37°C° 0 mm 3 mps 652 mmHg 16%
16:00 +37°C° 0 mm 2 mps 652 mmHg 16%
17:00 +37°C° 0 mm 2 mps 652 mmHg 15%
18:00 +35°C° 0 mm 2 mps 652 mmHg 22%
19:00 +32°C° 0 mm 2 mps 652 mmHg 29%
20:00 +30°C° 0 mm 2 mps 652 mmHg 36%
21:00 +28°C° 0.1 mm 2 mps 652 mmHg 46%
22:00 +27°C° 0.1 mm 2 mps 652 mmHg 55%
23:00 +26°C° 0.1 mm 1 mps 652 mmHg 65%

12 July, Sunday

Time Temperature Precipitation Wind Pressure Humidity
00:00 +25°C° 0.1 mm 1 mps 651 mmHg 66%
01:00 +25°C° 0.1 mm 1 mps 651 mmHg 68%
02:00 +25°C° 0.1 mm 1 mps 651 mmHg 69%
03:00 +25°C° 0.1 mm 1 mps 651 mmHg 68%
04:00 +24°C° 0.1 mm 1 mps 651 mmHg 67%
05:00 +24°C° 0.1 mm 1 mps 651 mmHg 66%
06:00 +25°C° 0.2 mm 1 mps 651 mmHg 62%
07:00 +26°C° 0.2 mm 1 mps 652 mmHg 58%
08:00 +27°C° 0.2 mm 1 mps 652 mmHg 54%
09:00 +28°C° 0.1 mm 2 mps 653 mmHg 51%
10:00 +30°C° 0.1 mm 2 mps 653 mmHg 48%
11:00 +31°C° 0.1 mm 2 mps 653 mmHg 45%
12:00 +31°C° 0.1 mm 3 mps 653 mmHg 42%
13:00 +33°C° 0.1 mm 3 mps 653 mmHg 39%
14:00 +34°C° 0.1 mm 3 mps 653 mmHg 36%
15:00 +34°C° 0.3 mm 3 mps 653 mmHg 37%
16:00 +34°C° 0.3 mm 3 mps 652 mmHg 38%
17:00 +33°C° 0.3 mm 3 mps 652 mmHg 38%
18:00 +31°C° 0.4 mm 2 mps 652 mmHg 42%
19:00 +30°C° 0.4 mm 2 mps 652 mmHg 46%
20:00 +29°C° 0.4 mm 2 mps 653 mmHg 49%
21:00 +29°C° 0.9 mm 2 mps 653 mmHg 52%
22:00 +28°C° 0.9 mm 2 mps 653 mmHg 55%
23:00 +28°C° 0.9 mm 2 mps 653 mmHg 58%
Show more